Lid_Strength_Index
15 15 15 14 14 15 15 15 14 14 14 14 13 14 15 15 15 15 15 15 15 16 16 15 15 15 16 16 16 16 16 16 18 17 16 16 15 16 15 15 15 15 15
15 15 15 15 14 14 15 15 15 15 14 14 14 14 15 15 14 14 15 15 15 15 15 15 16 15 16 16 16 16 16 16 16 17 16 16 16 16 16 16 15 15 16
15 15 15 15 14 14 14 14 15 15 14 14 14 15 16 16 16 16 15 15 16 16 16 16 16 15 16 16 16 16 16 15 16 17 17 16 16 16 17 16 17 17 16
15 15 15 15 14 14 14 15 14 14 15 14 14 14 16 16 16 14 14 15 15 15 15 15 15 16 16 16 16 16 16 17 17 18 18 18 18 17 17 19 19 18 19
15 16 15 15 15 15 15 15 15 15 14 15 16 16 16 15 15 16 15 16 17 17 15 15 15 15 13 14 16 17 17 18 18 18 19 20 21 20 20 20 22 21 21
15 16 16 16 15 15 15 16 16 15 15 15 15 16 16 14 13 13 15 16 16 16 16 16 16 15 14 13 13 14 16 18 19 19 20 21 20 21 21 23 23 24 26
15 15 15 15 15 16 16 16 16 16 16 15 16 16 16 15 11 11 13 15 16 16 17 17 18 17 17 17 15 15 15 15 16 19 21 21 22 21 22 25 25 26 28
15 15 15 15 15 16 16 16 17 17 17 17 17 17 16 14 11 11 14 17 18 19 19 19 19 20 19 19 19 20 21 20 19 20 21 21 21 21 23 24 29 31 30
16 16 15 15 16 16 17 17 17 17 18 19 17 17 15 13 11 12 16 19 20 21 21 20 20 21 15 16 20 23 24 25 22 21 21 21 22 22 22 29 34 33 35
19 17 17 16 16 18 18 18 18 18 18 17 17 16 13 13 12 14 17 19 21 22 22 21 16 17 15 17 22 24 27 29 28 30 30 29 28 28 26 28 30 34 34
20 19 18 18 18 17 18 17 17 16 15 16 17 16 15 15 15 15 16 20 21 22 21 22 18 15 16 17 19 23 27 29 31 33 33 32 31 31 31 31 31 32 34
21 20 19 18 17 17 17 16 15 16 17 17 18 18 17 16 14 14 15 17 18 21 21 20 18 17 18 19 21 23 25 30 34 36 38 39 37 35 33 32 32 32 31
22 21 19 18 17 17 17 16 17 17 17 18 18 19 19 17 16 14 15 16 17 20 20 18 18 21 23 24 23 25 30 33 37 39 41 41 39 36 37 37 37 34 32
23 22 20 19 18 18 17 17 17 18 18 19 20 21 21 21 21 21 19 19 20 22 22 23 23 24 25 28 31 31 32 33 35 38 37 35 38 40 38 38 35 33 33
23 22 21 20 20 20 19 19 19 19 18 19 20 20 21 22 21 20 21 23 24 24 28 28 29 30 31 32 33 33 34 34 35 35 38 37 36 35 34 35 34 34 36
22 22 21 21 20 19 19 18 15 15 15 15 16 17 18 16 16 17 18 19 20 24 29 31 31 32 33 33 34 34 34 35 36 36 37 39 37 36 35 34 34 36 35
22 21 20 20 19 19 19 19 19 16 14 14 13 14 15 15 17 18 19 21 23 27 32 32 32 33 34 34 35 35 36 35 36 37 37 36 36 36 36 36 35 35 35
22 20 20 19 19 19 18 18 18 19 18 17 15 16 16 16 18 19 22 27 32 31 33 34 35 35 35 35 36 39 39 38 39 38 37 38 39 39 38 37 36 36 34
23 23 23 23 23 23 23 23 24 24 25 25 25 23 19 19 20 23 25 32 34 35 35 36 35 37 37 39 40 42 44 42 40 40 42 40 39 42 38 37 36 34 34
24 23 23 23 23 24 24 25 25 26 26 27 28 29 29 30 33 33 33 34 35 35 36 37 39 40 44 46 46 47 46 44 42 41 40 40 38 39 38 37 35 35 33
24 24 24 24 24 25 25 26 26 26 27 29 29 28 26 32 33 34 35 36 37 38 38 40 41 45 46 48 49 48 47 41 40 40 41 39 38 39 36 36 35 34 33
24 25 25 25 25 26 26 26 27 27 27 28 26 25 26 33 34 35 36 39 42 43 44 45 46 47 45 45 44 45 44 42 40 41 40 39 39 37 36 35 34 32 32
25 25 26 26 26 27 27 27 28 28 29 31 32 33 34 35 36 39 40 43 45 46 47 49 49 45 44 43 44 44 43 39 38 41 39 38 37 36 35 34 33 32 31
25 25 26 27 27 28 28 29 29 30 31 32 33 34 35 36 37 41 45 47 48 49 49 49 47 44 42 41 42 42 41 40 39 39 40 38 37 35 33 33 31 31 30
26 26 27 28 28 29 29 30 30 31 32 33 34 35 37 38 44 46 48 49 49 49 46 45 45 44 42 40 40 39 38 34 36 34 35 35 35 34 33 32 31 31 29
27 27 28 28 29 29 30 31 32 32 33 34 36 37 39 45 47 48 49 49 48 47 44 43 42 41 40 39 38 35 33 28 27 27 30 32 31 31 29 27 26 26 27